TimeAKST,TemperatureF,Dew PointF,Humidity,Sea Level PressureIn,VisibilityMPH,Wind Direction,Wind SpeedMPH,Gust SpeedMPH,PrecipitationIn,Events,Conditions,WindDirDegrees,DateUTC
12:53 AM,33.1,28.0,82,29.93,10.0,SE,9.2,-,N/A,,Overcast,140,2013-03-07 09:53:00
1:24 AM,33.1,28.0,82,29.92,10.0,SSE,8.1,-,N/A,,Overcast,160,2013-03-07 10:24:00
1:53 AM,33.1,28.0,82,29.91,10.0,SSE,11.5,21.9,0.00,,Overcast,160,2013-03-07 10:53:00
3:49 AM,33.8,28.4,81,29.85,2.5,SE,13.8,25.3,0.00,Snow,Light Snow,140,2013-03-07 12:49:00
3:50 AM,33.1,28.9,85,29.85,2.5,SE,13.8,25.3,0.00,Snow,Light Snow,140,2013-03-07 12:50:00
4:17 AM,32.0,28.0,85,29.83,3.0,SE,13.8,28.8,0.00,Snow,Light Snow,140,2013-03-07 13:17:00
4:25 AM,33.1,28.0,82,29.83,4.0,SE,10.4,26.5,0.00,Snow,Light Snow,130,2013-03-07 13:25:00
4:53 AM,34.0,27.0,75,29.82,8.0,ESE,18.4,35.7,0.00,,Overcast,120,2013-03-07 13:53:00
5:02 AM,34.0,27.0,75,29.81,8.0,ESE,18.4,29.9,0.00,,Overcast,120,2013-03-07 14:02:00
5:53 AM,34.0,27.0,75,29.80,4.0,ESE,20.7,38.0,0.00,Snow,Light Snow,110,2013-03-07 14:53:00
6:11 AM,34.0,28.0,79,29.79,2.5,ESE,24.2,41.4,0.00,Snow,Light Snow,110,2013-03-07 15:11:00
6:15 AM,35.1,28.0,76,29.80,3.0,ESE,21.9,39.1,0.00,Snow,Light Snow,110,2013-03-07 15:15:00
6:24 AM,33.1,28.0,82,29.79,1.8,ESE,16.1,33.4,0.00,Snow,Light Snow,120,2013-03-07 15:24:00
6:32 AM,35.1,28.0,76,29.80,2.5,ESE,17.3,33.4,0.00,Snow,Light Snow,110,2013-03-07 15:32:00
6:43 AM,34.0,28.9,82,29.78,1.5,ESE,24.2,35.7,0.00,Snow,Light Snow,110,2013-03-07 15:43:00
6:53 AM,34.0,28.0,79,29.79,2.0,ESE,20.7,38.0,0.00,Snow,Light Snow,120,2013-03-07 15:53:00
7:18 AM,34.0,28.9,82,29.78,1.8,ESE,19.6,38.0,0.00,Snow,Light Snow,110,2013-03-07 16:18:00
7:41 AM,34.0,28.9,82,29.79,1.2,East,20.7,34.5,0.00,Snow,Light Snow,100,2013-03-07 16:41:00
7:53 AM,34.0,28.9,82,29.79,1.2,ESE,24.2,35.7,0.00,Snow,Light Snow,110,2013-03-07 16:53:00
8:13 AM,33.1,30.0,89,29.78,0.5,East,19.6,31.1,0.01,Fog-Snow,Light Snow,90,2013-03-07 17:13:00
8:53 AM,33.1,30.0,89,29.76,0.8,ESE,24.2,41.4,0.03,Snow,Light Snow,110,2013-03-07 17:53:00
9:53 AM,35.1,30.0,82,29.76,1.0,ESE,21.9,48.3,0.01,Snow,Light Snow,110,2013-03-07 18:53:00
10:35 AM,35.1,30.9,85,29.73,2.0,East,25.3,52.9,0.01,Snow,Light Snow,80,2013-03-07 19:35:00
10:44 AM,35.1,30.9,85,29.74,1.2,East,21.9,63.3,0.01,Snow,Light Snow,100,2013-03-07 19:44:00
10:53 AM,35.1,30.9,85,29.75,1.0,ESE,21.9,43.7,0.02,Snow,Light Snow,120,2013-03-07 19:53:00
10:57 AM,35.1,30.9,85,29.73,1.0,ESE,17.3,43.7,0.00,Snow,Light Snow,120,2013-03-07 19:57:00
11:04 AM,36.0,30.9,82,29.73,1.5,East,26.5,62.1,0.01,Snow,Light Snow,90,2013-03-07 20:04:00
11:10 AM,36.0,30.9,82,29.73,2.0,East,29.9,76.0,0.01,Snow,Light Snow,100,2013-03-07 20:10:00
11:36 AM,36.0,30.9,82,29.73,1.2,East,19.6,51.8,0.01,Snow,Light Snow,90,2013-03-07 20:36:00
11:53 AM,35.1,30.9,85,29.74,1.0,East,23.0,49.5,0.02,Snow,Light Snow,100,2013-03-07 20:53:00
12:26 PM,36.0,30.9,82,29.73,2.0,ESE,26.5,49.5,0.02,Snow,Light Snow,110,2013-03-07 21:26:00
12:40 PM,36.0,30.0,79,29.72,4.0,ESE,18.4,51.8,0.02,,Overcast,110,2013-03-07 21:40:00
12:53 PM,37.0,30.0,76,29.73,3.0,East,24.2,43.7,0.02,Snow,Light Snow,100,2013-03-07 21:53:00
1:36 PM,36.0,30.0,79,29.69,1.8,NNE,19.6,46.0,0.01,Snow,Light Snow,20,2013-03-07 22:36:00
1:53 PM,36.0,30.0,79,29.68,1.2,ESE,27.6,54.1,0.02,Snow,Light Snow,110,2013-03-07 22:53:00
2:11 PM,36.0,30.0,79,29.65,1.0,ESE,19.6,62.1,0.01,Snow,Light Snow,120,2013-03-07 23:11:00
2:40 PM,36.0,30.9,82,29.65,0.8,East,24.2,57.5,0.05,Snow,Light Snow,90,2013-03-07 23:40:00
2:53 PM,36.0,33.1,89,29.66,0.8,East,29.9,69.0,0.07,Snow,Light Snow,100,2013-03-07 23:53:00
3:07 PM,36.0,32.0,86,29.61,1.0,ENE,29.9,59.8,0.02,Snow,Light Snow,70,2013-03-08 00:07:00
3:17 PM,36.0,30.9,82,29.61,0.8,East,36.8,73.6,0.03,Snow,Light Snow,90,2013-03-08 00:17:00
3:53 PM,35.1,32.0,89,29.62,0.5,East,36.8,69.0,0.12,Fog-Snow,Snow,100,2013-03-08 00:53:00
4:25 PM,35.1,32.0,89,29.62,0.5,East,29.9,69.0,0.08,Fog-Snow,Snow,100,2013-03-08 01:25:00
4:53 PM,36.0,32.0,86,29.62,0.8,East,34.5,61.0,0.14,Snow,Light Snow,90,2013-03-08 01:53:00
5:27 PM,35.1,34.0,96,29.62,0.8,East,31.1,61.0,0.09,Snow,Light Snow,100,2013-03-08 02:27:00
5:53 PM,36.0,32.0,86,29.65,0.8,East,33.4,61.0,0.16,Snow,Light Snow,90,2013-03-08 02:53:00
6:17 PM,36.0,32.0,86,29.64,1.2,East,27.6,63.3,0.07,Snow,Light Snow,90,2013-03-08 03:17:00
6:53 PM,36.0,32.0,86,29.64,1.5,ESE,32.2,61.0,0.17,Snow,Light Snow,120,2013-03-08 03:53:00
7:53 PM,35.1,30.9,85,29.64,1.2,ESE,33.4,61.0,0.14,Snow,Light Snow,120,2013-03-08 04:53:00
8:38 PM,35.1,30.9,85,29.64,1.0,East,13.8,40.3,0.10,Snow,Light Snow,90,2013-03-08 05:38:00
8:48 PM,35.6,30.2,81,29.65,1.2,SE,16.1,48.3,0.12,Snow,Light Snow,130,2013-03-08 05:48:00
8:53 PM,35.1,30.9,85,29.66,1.2,ESE,26.5,48.3,0.13,Snow,Light Snow,110,2013-03-08 05:53:00
9:43 PM,35.1,30.9,85,29.66,1.5,East,32.2,55.2,0.10,Snow,Light Snow,90,2013-03-08 06:43:00
9:53 PM,35.1,32.0,89,29.66,1.5,East,26.5,61.0,0.12,Snow,Light Snow,100,2013-03-08 06:53:00
10:53 PM,35.1,30.9,85,29.66,1.5,ESE,23.0,56.4,0.10,Snow,Light Snow,110,2013-03-08 07:53:00
11:53 PM,36.0,30.9,82,29.67,1.8,ESE,26.5,48.3,0.10,Snow,Light Snow,120,2013-03-08 08:53:00